Regional Weather Roundup
Issued by NWS Charleston, WV

Home | Current Version | Previous Version | Graphics & Text | Print | Product List | Glossary On
Versions: 1 2 3 4 5 6 7 8 9 10 11 12 13 14 15 16 17 18 19 20 21 22 23 24 25 26 27 28 29 30 31 32 33 34 35 36 37 38 39 40 41 42 43 44 45 46 47 48 49 50
000
ASUS41 KRLX 011810
RWRRLX
West Virginia Regional Weather Roundup
National Weather Service Charleston WV
100 PM EST SUN MAR 01 2015

Note: "fair" indicates few or no clouds below 12,000 feet with no
significant weather and/or obstructions to visibility.

WVZ003-011900-
Northern Panhandle of West Virginia

CITY           SKY/WX    TMP DP  RH WIND       PRES   REMARKS
WHEELING       LGT SNOW  33  31  92 S12       30.29F VSB 3/4
$$

WVZ009-011900-
Northwest West Virginia

CITY           SKY/WX    TMP DP  RH WIND       PRES   REMARKS
PARKERSBURG    LGT RAIN  36  34  92 S7        30.36F FOG
$$

WVZ006-011900-
Western West Virginia

CITY           SKY/WX    TMP DP  RH WIND       PRES   REMARKS
HUNTINGTON     LGT RAIN  36  36 100 CALM      30.33F FOG
$$

WVZ015-011900-
West Central West Virginia

CITY           SKY/WX    TMP DP  RH WIND       PRES   REMARKS
CHARLESTON     LGT SNOW  38  36  92 S3        30.35F FOG
$$

WVZ022-031-011900-
North Central West Virginia

CITY           SKY/WX    TMP DP  RH WIND       PRES   REMARKS
CLARKSBURG     LGT RAIN  37  35  92 S8        30.33F FOG
MORGANTOWN     FLURRIES  36  31  82 S6        30.33F
$$

WVZ025-035-042-045-011900-
Southern West Virginia

CITY           SKY/WX    TMP DP  RH WIND       PRES   REMARKS
BECKLEY        LGT RAIN  36  30  79 CALM      30.32F
LOGAN          CLOUDY    39  34  81 CALM      30.31F HAZE
BLUEFIELD      CLOUDY    53  38  56 SW10      30.33F
LEWISBURG      CLOUDY    33  30  89 CALM      30.36F
$$

WVZ047-011900-
Northern Mountains of West Virginia

CITY           SKY/WX    TMP DP  RH WIND       PRES   REMARKS
ELKINS         LGT RAIN  35  35 100 CALM      30.33F FOG
$$

WVZ052-011900-
Eastern Panhandle of West Virginia

CITY           SKY/WX    TMP DP  RH WIND       PRES   REMARKS
MARTINSBURG    FRZ RAIN  30  25  81 S7        30.44F
PETERSBURG     LGT RAIN  33  21  61 CALM      30.38F
$$


USA.gov is the U.S. government's official web portal to all federal, state and local government web resources and services.